SCP
0 0 0 1 1 0 0 0 0 0 0 0 0 0 0 0 0 0 0 0 0 0 0 0 0 0 0 0 0 0 0 0 0 0 0 1 1 0 0 0 0 0 0 0 0 0 0 1 1
0 0 0 0 1 0 0 0 0 0 0 0 0 0 0 0 0 0 0 0 0 0 0 0 0 0 0 0 0 0 0 0 0 0 0 0 1 1 0 0 0 0 0 0 0 0 0 1 1
0 0 0 0 0 0 0 0 0 0 0 0 0 0 0 0 0 0 0 0 0 0 0 0 0 0 0 0 0 0 0 0 0 0 0 0 0 0 1 0 0 0 0 0 0 0 1 1 1
0 0 0 0 0 0 0 0 0 0 0 0 0 0 0 0 0 0 0 0 0 0 0 0 0 0 0 0 0 0 0 0 0 0 0 0 0 0 0 0 0 0 0 0 0 1 1 0 0
0 0 0 0 0 0 0 0 0 0 0 0 0 0 0 0 0 0 0 0 0 0 0 0 0 0 0 0 0 0 0 0 0 0 0 0 0 0 0 0 0 0 0 0 0 0 0 0 0
0 0 0 0 0 0 0 0 0 0 0 0 1 1 0 0 0 0 0 0 0 0 0 0 0 0 0 0 0 0 0 0 0 0 0 0 0 0 0 0 0 0 0 0 0 0 0 0 0
1 0 0 0 0 0 0 0 0 0 0 1 1 1 1 0 1 1 1 1 1 1 1 1 0 0 0 0 0 0 0 0 0 0 0 0 0 0 0 0 0 0 0 0 0 0 0 0 0
1 1 0 0 0 0 0 0 0 0 0 1 1 1 1 1 1 1 1 1 1 1 1 1 0 0 0 0 0 0 0 0 0 0 0 0 0 0 0 0 0 0 0 0 0 0 0 0 0
1 0 0 0 0 0 0 0 0 0 1 1 1 2 1 1 1 1 1 1 1 1 1 1 0 0 0 0 0 0 0 0 0 0 0 0 0 0 0 0 0 0 0 0 0 0 0 0 0
0 0 0 0 0 0 0 0 0 0 1 1 1 1 1 1 1 1 1 1 1 1 1 1 1 0 0 0 0 0 0 0 0 0 0 0 0 0 0 0 0 0 0 0 0 0 0 0 0
0 0 0 0 0 0 0 0 0 0 0 1 1 1 1 1 1 1 1 1 0 0 1 1 1 1 0 0 0 0 0 0 0 0 0 0 0 0 0 0 0 0 0 0 0 0 0 0 0
0 0 0 0 0 0 0 0 0 0 0 1 1 1 1 1 0 0 0 0 0 0 0 1 1 1 0 0 0 0 0 0 0 1 1 1 1 0 0 0 0 0 0 0 0 0 0 0 0
0 0 0 0 0 0 0 0 0 0 0 1 1 1 1 1 0 0 0 0 0 0 0 1 1 1 1 0 0 0 0 0 0 0 1 1 1 1 0 0 0 0 0 0 0 0 0 0 0
0 0 0 0 0 0 0 0 0 0 1 1 1 1 1 0 0 0 0 0 0 0 0 0 1 1 0 0 0 0 0 0 0 0 0 1 1 1 0 0 0 0 0 0 0 0 0 0 0
0 0 0 0 0 0 0 0 0 0 1 1 1 1 1 0 0 0 0 0 0 0 0 0 0 0 0 0 0 0 0 0 0 0 0 0 0 0 0 0 0 0 0 0 0 0 0 0 0
0 0 0 0 0 0 0 0 0 0 1 1 1 1 1 1 0 0 0 0 0 0 0 0 0 0 0 0 0 0 0 0 0 0 0 0 0 0 0 0 0 0 0 0 0 0 0 0 0
0 0 0 0 0 0 0 0 0 0 1 1 1 1 1 1 0 0 0 0 0 0 0 0 0 0 0 0 0 0 0 0 0 0 0 0 0 0 0 0 0 0 0 0 0 0 0 0 0
0 0 0 0 0 0 0 0 0 0 1 1 1 1 1 1 0 0 0 0 0 0 0 0 0 0 0 0 0 0 0 0 0 0 0 0 0 0 0 0 0 0 0 0 0 0 0 0 0
0 0 0 0 0 0 0 0 0 0 1 1 1 1 1 1 1 0 0 0 0 0 0 0 0 0 0 0 0 0 0 0 0 0 0 0 0 0 0 0 0 0 0 0 0 0 0 0 0
0 0 0 0 0 0 0 0 0 0 1 1 1 2 1 1 1 0 0 0 0 0 0 0 0 0 0 0 0 0 0 0 0 0 0 0 0 0 0 0 0 0 0 0 0 0 0 0 0
0 0 0 0 0 0 0 0 0 0 1 1 1 1 1 1 1 1 0 0 0 0 0 0 0 0 0 0 0 0 0 0 0 0 0 0 0 0 0 0 0 0 0 0 0 0 0 0 0
0 0 0 0 0 0 0 0 0 0 0 1 1 1 1 1 1 0 0 0 0 0 0 0 0 0 0 0 0 0 0 0 0 0 0 0 0 0 0 0 0 0 0 0 0 0 0 0 0
0 0 0 0 0 0 0 0 0 0 0 1 1 1 1 1 1 0 0 0 0 0 0 0 0 0 0 0 0 0 0 0 0 0 0 0 0 0 0 0 0 0 0 0 0 0 0 0 0
0 0 0 0 0 0 0 0 0 0 0 0 1 1 1 1 1 0 0 0 0 0 0 0 0 0 0 0 0 0 0 0 0 0 0 0 0 0 0 0 0 0 0 0 0 0 0 0 0
0 0 0 0 0 0 0 0 0 0 0 0 0 1 1 1 1 0 0 0 0 0 0 0 0 0 0 0 0 0 0 0 0 0 0 0 0 0 0 0 0 0 0 0 0 0 0 0 0
0 0 0 0 0 0 0 0 0 0 0 0 0 1 1 1 0 0 0 0 0 0 0 0 0 0 0 0 0 0 0 0 0 0 0 0 0 0 0 0 0 0 0 0 0 0 0 0 0
0 0 0 0 0 0 0 0 0 0 0 0 0 0 0 0 0 0 0 0 0 0 0 0 0 0 0 0 0 0 0 0 0 0 0 0 0 0 0 0 0 0 0 0 0 0 0 0 0
0 0 0 0 0 0 0 0 0 0 0 0 0 0 0 0 0 0 0 0 0 0 0 0 0 0 0 0 0 0 0 0 0 0 0 0 0 0 0 0 0 0 0 0 0 0 0 0 0
0 0 0 0 0 0 0 0 0 0 0 0 0 0 0 0 0 0 0 0 0 0 0 0 0 0 0 0 0 0 0 0 0 0 0 0 0 0 0 0 0 0 0 0 0 0 0 0 0
0 0 0 0 0 0 0 0 0 0 0 0 0 0 0 0 0 0 0 0 0 0 0 0 0 0 0 0 0 0 0 0 0 0 0 0 0 0 0 0 0 0 0 0 0 0 0 0 0
Wind_Speed
15 10 5 3 3 4 3 2 4 5 5 7 8 8 9 10 7 8 3 6 7 8 8 7 7 9 10 11 10 10 10 10 10 10 10 11 11 11 11 11 10 10 10 11 11 10 10 10 10
11 8 4 3 4 4 3 3 5 7 7 6 6 8 9 9 8 6 4 5 6 8 8 8 8 9 10 10 10 10 10 10 11 10 10 11 11 11 10 10 10 10 10 10 10 10 10 9 9
10 6 3 3 3 3 2 5 8 10 7 5 5 7 7 7 5 4 4 4 7 8 8 9 9 9 10 10 10 10 9 10 10 10 10 10 10 10 10 10 10 10 9 9 9 9 9 8 8
4 3 3 4 4 1 1 5 8 8 6 5 6 8 7 7 4 4 4 5 7 8 8 8 10 10 10 9 9 9 9 9 9 9 10 11 11 10 10 10 10 10 9 9 9 8 8 7 7
2 2 4 4 3 0 3 5 5 5 5 5 5 7 7 5 6 6 5 6 7 8 8 7 10 10 9 9 9 9 9 9 9 9 10 10 10 10 10 9 9 9 9 8 8 8 8 7 7
2 2 4 5 5 3 1 3 3 5 5 5 5 7 6 4 6 5 5 6 7 7 7 7 9 9 9 9 9 9 9 9 9 9 9 9 9 9 9 9 9 8 8 8 8 7 7 7 6
2 3 5 5 4 3 2 3 4 3 5 5 3 5 6 4 4 4 4 6 7 7 6 5 5 6 8 9 9 9 9 9 8 9 8 8 7 8 8 8 8 8 8 7 7 6 6 6 5
3 2 5 4 4 2 2 3 4 3 4 4 5 5 5 3 3 3 5 6 7 7 6 5 5 4 4 5 7 8 9 9 8 8 7 6 6 6 6 6 7 7 7 6 6 5 5 4 5
3 3 3 2 2 2 3 3 3 4 6 5 6 6 6 6 4 5 5 6 6 7 6 5 5 5 4 3 5 5 6 7 6 5 5 4 2 2 3 5 6 6 6 6 6 5 4 3 3
1 2 1 3 2 3 4 4 3 3 5 4 6 8 8 5 5 6 5 5 5 5 5 5 5 5 4 4 3 2 3 3 3 2 2 1 2 2 3 4 4 5 5 5 5 5 4 3 1
1 0 2 4 5 4 4 4 2 3 3 3 5 6 6 6 5 5 5 5 5 5 5 5 5 5 5 3 3 2 2 2 2 3 3 2 2 2 2 1 2 2 2 2 3 3 3 2 2
2 3 3 3 4 4 4 3 2 4 4 5 6 7 7 6 5 5 5 5 4 5 5 5 5 4 4 4 3 3 2 2 3 3 4 3 2 2 2 2 2 2 2 2 2 2 3 3 3
2 2 4 4 6 6 5 4 3 4 5 6 7 6 6 5 5 4 5 5 4 5 5 5 4 4 4 3 3 3 3 3 3 3 3 4 3 3 2 2 2 3 3 3 3 3 3 3 3
4 4 3 2 3 3 4 2 1 2 5 5 6 6 5 5 4 4 4 4 4 4 4 4 4 5 4 3 3 3 2 2 2 3 4 4 3 3 2 2 2 3 3 3 3 4 3 2 2
4 4 2 1 1 2 2 1 2 3 4 4 5 5 5 4 4 4 3 3 3 3 3 4 4 4 4 4 4 3 3 3 2 3 3 4 3 3 2 2 2 2 2 3 3 4 3 3 3
2 2 2 0 1 2 1 2 3 4 4 4 4 4 4 4 4 4 4 3 3 3 3 3 3 4 4 4 3 2 2 3 3 3 3 4 4 3 2 2 2 3 2 2 2 3 3 3 3
3 2 2 2 0 0 1 1 3 3 3 3 3 3 4 4 4 4 3 3 3 3 3 3 3 3 3 3 2 2 2 3 2 3 3 3 4 4 3 2 2 3 2 2 3 3 3 3 3
1 0 0 2 1 1 2 2 2 2 3 2 2 3 3 4 4 4 4 4 3 3 3 3 3 3 2 2 2 2 2 2 3 3 4 4 4 4 4 2 3 3 2 3 3 3 3 3 3
1 1 1 1 1 0 2 2 2 3 3 2 2 2 2 3 4 4 4 4 3 3 3 3 2 3 3 2 2 2 2 2 3 3 4 4 4 4 4 3 3 3 3 3 3 3 3 4 4
1 1 1 1 1 1 2 3 4 3 3 2 2 1 2 2 3 3 4 3 3 3 2 2 2 2 2 2 1 1 1 1 2 2 3 4 4 4 4 4 3 3 3 4 4 4 2 3 4
2 1 0 0 1 2 2 3 3 2 2 2 1 1 1 2 2 3 3 3 3 2 2 2 2 2 2 2 1 1 1 1 2 2 3 4 4 5 4 4 3 3 3 3 4 4 4 3 3
1 1 0 1 1 1 2 2 3 4 4 3 2 2 1 1 1 2 3 3 2 2 2 2 2 2 2 2 2 2 2 2 2 2 2 3 4 5 5 5 4 3 3 3 4 4 3 3 3
1 2 2 2 2 1 2 2 3 4 4 3 3 2 2 2 1 2 2 3 3 2 2 2 2 2 3 3 2 2 2 2 2 2 3 3 3 4 5 5 4 3 3 3 4 4 4 3 3
0 1 1 1 1 1 1 2 2 3 3 3 3 3 2 2 2 2 2 3 3 2 2 2 2 3 3 2 2 2 2 2 2 2 2 2 2 3 5 5 4 3 3 3 3 3 3 3 3
0 0 1 1 0 1 2 1 3 1 2 2 3 3 2 2 2 2 2 3 2 2 2 2 2 2 2 2 2 2 2 2 2 2 2 2 2 3 4 4 3 3 3 3 3 3 3 3 3
1 1 0 1 1 0 0 3 2 2 2 2 3 3 3 2 2 2 2 3 3 2 2 2 2 2 2 2 2 2 2 2 1 2 2 2 2 2 3 3 3 4 4 4 3 2 2 2 3
1 1 1 1 1 1 3 3 1 2 1 1 2 3 2 2 2 1 1 2 2 3 2 2 2 2 2 2 3 2 2 2 1 1 1 1 1 2 3 3 3 3 4 3 3 2 3 3 3
2 1 0 1 0 1 2 2 3 2 2 2 2 2 2 2 2 1 2 2 2 2 2 2 2 2 2 2 2 2 2 2 2 2 2 2 2 2 2 3 3 3 3 3 2 2 3 3 3
1 1 1 0 0 1 2 3 1 2 3 3 2 2 2 2 2 2 2 2 2 2 3 2 2 2 2 2 2 2 2 2 2 2 2 1 2 2 2 3 3 3 3 3 3 3 3 3 3
1 1 0 1 2 1 1 5 1 2 2 3 2 2 2 2 2 2 2 2 2 2 2 2 2 2 1 1 2 2 1 1 1 2 2 1 2 2 2 2 2 3 3 3 2 3 3 3 4
Wind_Direction
312 294 272 262 242 228 223 196 105 89 77 54 46 60 64 49 52 92 88 69 80 96 103 95 82 88 86 83 82 80 79 80 82 80 77 76 74 72 70 67 66 64 62 63 61 60 59 58 57
304 296 273 246 241 229 198 155 107 78 86 83 60 65 72 70 60 82 66 61 81 91 96 92 83 86 85 83 80 81 78 76 76 76 75 75 75 72 69 66 64 62 61 61 60 59 57 57 55
287 270 261 247 241 246 192 103 104 94 87 87 75 52 55 61 54 53 53 68 81 84 84 81 74 80 83 83 81 79 78 75 75 73 71 72 72 69 65 62 61 59 58 58 58 58 55 56 51
289 259 243 247 239 270 87 88 106 114 97 79 97 85 73 49 34 51 63 79 84 84 83 77 68 70 72 76 77 75 74 73 72 71 70 68 65 62 60 58 57 53 52 54 55 52 52 51 44
249 253 236 226 222 258 49 74 105 109 115 93 90 96 83 51 51 67 62 70 81 84 85 83 68 65 65 66 67 70 70 68 68 67 67 65 62 60 59 55 54 52 50 50 50 48 45 43 37
258 238 236 218 192 166 69 45 75 93 97 87 79 97 92 67 55 58 59 66 75 82 87 88 72 68 64 62 62 62 62 65 65 66 66 65 63 61 58 53 50 50 48 45 45 43 39 33 29
273 258 251 239 191 165 120 63 66 78 88 61 27 91 109 72 55 61 66 67 72 71 72 78 84 76 66 63 60 58 56 56 61 64 61 61 62 63 60 52 46 45 44 42 39 36 33 26 20
301 277 249 236 203 168 118 99 65 52 71 47 34 85 109 96 75 81 79 75 72 67 62 58 60 68 74 72 62 59 57 53 58 58 53 52 57 62 61 51 43 40 37 34 31 27 25 18 12
289 246 247 261 188 131 114 102 74 54 78 66 54 59 98 117 115 94 83 73 66 63 55 48 46 44 46 63 69 64 61 53 56 56 50 57 54 58 63 54 45 36 31 23 18 11 4 6 355
299 241 269 354 51 111 113 96 112 112 95 86 75 72 96 115 117 101 90 81 70 63 53 43 40 38 37 41 60 57 69 64 55 45 40 28 27 38 48 59 47 32 20 11 7 359 348 338 320
17 45 41 25 56 85 95 82 79 135 98 96 104 107 112 110 99 95 87 77 70 69 57 44 36 37 35 28 29 30 36 38 48 33 18 27 34 37 47 49 33 13 3 355 351 346 346 346 350
86 40 43 39 52 69 72 84 56 67 80 81 103 117 115 111 105 96 90 80 64 58 52 44 36 37 33 29 30 29 27 26 31 25 21 20 20 20 23 28 16 8 359 350 350 345 345 352 357
87 91 58 61 68 73 78 74 65 76 82 89 103 106 112 117 116 101 91 82 68 58 47 43 36 35 29 30 28 36 29 29 31 26 21 21 16 18 22 32 22 13 2 354 345 348 348 349 353
93 96 89 66 71 77 89 89 89 106 101 106 115 117 117 118 114 104 90 86 70 58 49 40 38 35 31 28 28 32 27 27 30 30 21 18 18 19 24 26 24 14 360 349 343 348 344 342 345
123 115 100 80 178 145 103 80 185 150 130 125 126 127 123 120 117 113 112 104 91 74 59 48 37 38 34 26 24 30 24 26 27 25 20 15 17 16 18 26 18 8 354 348 343 345 347 344 346
217 193 167 143 224 199 199 221 150 149 145 144 140 132 130 126 118 112 112 116 112 100 77 62 39 41 41 32 21 24 28 29 27 23 16 16 13 9 15 19 12 3 357 355 347 348 348 345 341
199 194 171 147 310 192 188 211 148 159 159 159 141 139 145 140 123 106 97 96 104 102 91 78 55 40 42 37 25 27 29 32 30 29 22 15 15 6 2 10 5 3 2 356 353 354 345 339 337
127 85 119 142 92 100 172 200 182 161 164 166 148 149 139 136 128 111 96 84 82 84 82 72 61 39 39 46 32 29 34 28 31 30 20 13 13 11 356 0 0 3 4 356 357 353 346 340 331
85 94 37 48 101 138 194 218 235 179 174 180 173 164 154 134 114 109 103 97 84 74 76 73 57 38 33 30 24 19 15 18 30 26 27 19 19 15 7 5 4 4 4 356 354 351 347 347 342
68 92 4 22 67 226 215 246 246 186 179 187 183 175 167 136 113 108 105 101 92 74 60 68 56 43 33 22 1 19 17 29 33 18 25 22 22 19 11 7 7 3 360 2 358 355 345 350 2
38 356 343 343 304 222 219 251 197 163 164 163 180 183 170 157 138 126 123 109 97 81 64 51 53 43 32 25 25 27 36 35 21 10 16 16 19 19 16 6 8 6 4 1 357 359 352 341 351
36 18 265 228 241 226 221 258 208 182 183 182 188 186 175 143 140 139 129 122 113 104 88 76 55 41 35 39 44 41 38 17 2 5 13 13 20 21 19 13 11 9 9 6 359 3 348 343 339
75 309 278 255 265 282 247 252 233 169 191 195 184 171 153 139 147 117 109 120 118 111 98 90 86 62 45 40 50 55 45 29 27 26 24 16 18 26 21 15 11 12 15 14 9 2 358 351 347
198 280 261 272 272 262 218 217 263 189 190 175 153 142 136 121 112 103 100 109 100 94 87 83 83 69 54 47 44 53 53 43 34 20 20 13 14 19 20 13 12 10 13 8 5 359 359 352 353
302 5 44 355 273 241 134 208 254 130 112 135 148 147 138 129 130 125 124 128 116 101 83 75 82 70 57 54 45 41 52 51 40 20 19 15 9 9 6 4 5 4 359 3 4 358 354 348 344
294 333 97 212 228 292 167 233 246 100 87 87 114 127 123 130 138 128 132 138 129 116 98 83 74 59 50 48 40 38 41 48 35 26 23 17 9 356 355 357 357 356 357 358 357 346 339 340 333
347 48 333 22 72 298 240 225 248 94 94 123 129 124 132 134 134 133 123 123 123 114 104 97 88 65 50 46 41 38 37 41 29 19 25 20 1 350 355 352 352 353 356 350 349 357 349 349 344
351 354 2 123 119 278 264 236 233 209 217 175 149 147 150 145 141 131 120 111 105 105 103 93 86 76 57 52 43 38 34 35 30 26 23 14 355 352 350 350 352 356 0 1 2 359 354 350 343
24 19 329 312 263 205 273 272 45 144 156 151 157 159 152 141 128 124 121 114 103 98 96 93 85 71 56 56 52 44 36 31 21 23 12 2 355 347 346 346 352 356 0 357 2 360 354 350 341
350 341 244 181 266 237 258 269 23 80 102 121 129 124 121 115 106 106 113 113 108 105 100 97 89 78 67 66 60 46 36 36 25 11 358 358 356 347 338 345 352 349 352 352 356 349 346 342 336